Location: Boiro
(42.6475°N, 8.8834°W)
Time: 17:47:43
(UTC+01:00)

Transit 2A - Pass Details

Date: 01 December 2021
Orbit: 591 x 967 km, 66.7° (Epoch: 20 January)

Event Time Altitude Azimuth Distance (km) Brightness Sun altitude
Rises 08:18:31 0° 334° (NNW) 3,632 9.0 -5.3°
Reaches altitude 10° 08:23:38 10° 9° (N) 2,712 8.7 -4.5°
Maximum altitude 08:25:16 11° 24° (NNE) 2,642 8.8 -4.2°
Drops below altitude 10° 08:26:55 10° 40° (NE) 2,711 9.0 -3.9°
Sets 08:32:00 0° 74° (ENE) 3,625 10.3 -3.1°
